Starlink 11387

operational
NORAD ID: 62090 Int'l Des: 2024-220 Owner: SPXS Country: US Constellation: starlink
LEOCIRCULAR

Über Starlink 11387

Beschreibung wird geladen...

Live-Position

3D-Globus wird geladen...

Nächste Überflüge

Höhenverlauf

Altitude vs Time

uPlot chart will show altitude changes over time

Zweizeiliger Elementsatz

1 62090U 24220C 25305.14377278 .00322551 00000-0 24104-2 0 9992
2 62090 42.9987 98.1399 0000279 340.9335 19.1522 15.70941771 54834
Epoch: 1. Nov. 2025 • Age: 21 hours

Aktueller Status

Höhe 357.3 km
Geschwindigkeit 7.70 km/s
Subsatellitenpunkt -13.57°S, 115.63°W
Startdatum 25. Nov. 2024
Alter 0.9 years
Typ internet

Technische Details

Klassifizierung Payload
Masse 960.00 kg
Trockenmasse 910.00 kg
Gesamtmasse 960.00 kg
Länge 0.30 m
Durchmesser 4.10 m
Spannweite 29.00 m
Form Box + pan
Hersteller SPXS
Bus-Typ Starlink V2MD
Phasenstatus In Orbit
Besitzer/Staat SPXS/US

Große Konstellationen

Loading constellations...